QPF
0.02 0.01 0.02 0.01 0.01 0.01 0.02 0.03 0.06 0.06 0.03 0.04 0.03 0.02 0.01 0.02 0.02 0.02 0.03 0.04 0.04 0.03 0.02 0.01 0.00 0.00 0.00 0.00 0.00 0.00 0.00 0.00 0.00 0.00 0.00 0.00 0.00 0.00 0.00 0.00 0.00 0.00 0.00 0.00
0.02 0.02 0.01 0.00 0.00 0.01 0.02 0.03 0.06 0.06 0.04 0.04 0.03 0.03 0.02 0.01 0.02 0.01 0.02 0.03 0.04 0.03 0.02 0.01 0.01 0.01 0.00 0.00 0.00 0.00 0.00 0.00 0.00 0.00 0.00 0.00 0.00 0.00 0.00 0.00 0.00 0.00 0.00 0.00
0.02 0.01 0.00 0.00 0.01 0.02 0.02 0.03 0.03 0.05 0.04 0.03 0.04 0.04 0.03 0.02 0.01 0.01 0.02 0.03 0.02 0.01 0.01 0.01 0.01 0.01 0.00 0.00 0.00 0.00 0.00 0.00 0.00 0.00 0.00 0.00 0.00 0.00 0.00 0.00 0.00 0.00 0.00 0.00
0.01 0.01 0.00 0.01 0.01 0.02 0.03 0.03 0.02 0.03 0.05 0.05 0.03 0.05 0.03 0.02 0.02 0.02 0.01 0.02 0.02 0.01 0.01 0.01 0.01 0.01 0.01 0.00 0.00 0.00 0.00 0.00 0.00 0.00 0.00 0.00 0.00 0.01 0.01 0.01 0.00 0.00 0.00 0.00
0.01 0.00 0.01 0.01 0.01 0.02 0.04 0.03 0.02 0.02 0.05 0.06 0.03 0.04 0.02 0.02 0.02 0.01 0.01 0.01 0.02 0.01 0.01 0.01 0.00 0.01 0.00 0.00 0.00 0.00 0.00 0.00 0.00 0.00 0.00 0.00 0.00 0.00 0.00 0.01 0.01 0.00 0.00 0.00
0.00 0.00 0.01 0.01 0.00 0.00 0.01 0.02 0.03 0.04 0.05 0.06 0.03 0.03 0.03 0.01 0.01 0.00 0.00 0.01 0.02 0.01 0.01 0.01 0.00 0.01 0.01 0.00 0.00 0.00 0.00 0.00 0.00 0.00 0.00 0.00 0.00 0.00 0.01 0.01 0.00 0.01 0.00 0.00
0.00 0.00 0.00 0.00 0.01 0.01 0.01 0.04 0.07 0.08 0.08 0.06 0.02 0.03 0.02 0.00 0.00 0.00 0.00 0.01 0.01 0.01 0.01 0.01 0.00 0.01 0.01 0.00 0.00 0.00 0.00 0.00 0.00 0.00 0.00 0.00 0.00 0.00 0.00 0.00 0.00 0.01 0.00 0.00
0.01 0.01 0.00 0.00 0.01 0.01 0.01 0.03 0.06 0.08 0.07 0.05 0.03 0.04 0.02 0.00 0.01 0.00 0.00 0.00 0.01 0.01 0.01 0.01 0.00 0.01 0.01 0.00 0.00 0.00 0.00 0.00 0.00 0.00 0.00 0.00 0.00 0.00 0.00 0.00 0.00 0.00 0.00 0.00
0.01 0.01 0.00 0.00 0.00 0.01 0.02 0.02 0.02 0.05 0.05 0.06 0.04 0.03 0.01 0.00 0.01 0.01 0.00 0.01 0.01 0.01 0.01 0.01 0.01 0.01 0.01 0.01 0.00 0.00 0.00 0.00 0.00 0.00 0.00 0.00 0.00 0.00 0.00 0.00 0.00 0.00 0.00 0.00
0.00 0.02 0.01 0.00 0.00 0.00 0.01 0.01 0.02 0.04 0.07 0.07 0.05 0.03 0.02 0.01 0.01 0.01 0.01 0.01 0.01 0.01 0.01 0.01 0.01 0.01 0.01 0.01 0.00 0.00 0.00 0.00 0.00 0.00 0.00 0.00 0.00 0.00 0.00 0.00 0.00 0.00 0.00 0.00
0.00 0.01 0.01 0.01 0.01 0.01 0.01 0.01 0.02 0.03 0.04 0.08 0.09 0.07 0.01 0.01 0.00 0.01 0.01 0.01 0.01 0.01 0.01 0.01 0.01 0.01 0.01 0.01 0.00 0.00 0.00 0.00 0.00 0.00 0.00 0.00 0.00 0.00 0.00 0.00 0.00 0.00 0.00 0.00
0.00 0.01 0.02 0.01 0.00 0.00 0.00 0.01 0.02 0.04 0.05 0.06 0.08 0.07 0.01 0.00 0.00 0.00 0.00 0.01 0.01 0.01 0.01 0.01 0.01 0.01 0.01 0.01 0.00 0.00 0.00 0.00 0.00 0.00 0.00 0.00 0.00 0.00 0.00 0.00 0.00 0.00 0.00 0.00
0.01 0.01 0.03 0.03 0.03 0.01 0.00 0.00 0.01 0.02 0.04 0.05 0.06 0.05 0.00 0.00 0.00 0.00 0.00 0.00 0.01 0.01 0.01 0.01 0.01 0.01 0.01 0.01 0.00 0.00 0.00 0.00 0.00 0.00 0.00 0.00 0.00 0.00 0.00 0.00 0.00 0.00 0.00 0.00
0.01 0.01 0.03 0.04 0.03 0.01 0.01 0.00 0.00 0.01 0.03 0.03 0.03 0.02 0.00 0.00 0.00 0.00 0.00 0.00 0.00 0.00 0.00 0.01 0.01 0.01 0.01 0.01 0.00 0.00 0.00 0.00 0.00 0.00 0.00 0.00 0.00 0.00 0.00 0.00 0.00 0.00 0.00 0.00
0.02 0.02 0.01 0.01 0.01 0.00 0.00 0.00 0.00 0.01 0.01 0.02 0.01 0.00 0.00 0.00 0.00 0.00 0.00 0.00 0.00 0.00 0.00 0.00 0.00 0.01 0.01 0.02 0.01 0.01 0.00 0.00 0.00 0.00 0.00 0.00 0.00 0.00 0.00 0.00 0.00 0.00 0.00 0.00
0.02 0.01 0.01 0.01 0.00 0.00 0.00 0.00 0.00 0.00 0.00 0.00 0.00 0.00 0.00 0.00 0.00 0.00 0.00 0.00 0.00 0.00 0.00 0.00 0.00 0.01 0.01 0.01 0.02 0.02 0.01 0.01 0.00 0.00 0.00 0.00 0.00 0.00 0.00 0.00 0.00 0.00 0.00 0.00
0.02 0.01 0.02 0.02 0.01 0.01 0.00 0.00 0.00 0.00 0.00 0.00 0.00 0.00 0.00 0.00 0.00 0.00 0.00 0.00 0.00 0.00 0.01 0.01 0.01 0.01 0.01 0.01 0.01 0.02 0.02 0.01 0.00 0.00 0.00 0.00 0.00 0.00 0.00 0.00 0.00 0.00 0.00 0.00
0.01 0.02 0.03 0.02 0.02 0.02 0.01 0.00 0.00 0.00 0.00 0.00 0.00 0.00 0.00 0.00 0.00 0.01 0.01 0.00 0.00 0.00 0.01 0.01 0.01 0.01 0.01 0.03 0.03 0.03 0.02 0.01 0.00 0.00 0.00 0.00 0.00 0.00 0.00 0.00 0.00 0.00 0.00 0.00
0.01 0.02 0.03 0.03 0.03 0.02 0.00 0.00 0.00 0.00 0.00 0.00 0.00 0.00 0.00 0.00 0.00 0.00 0.00 0.00 0.00 0.00 0.00 0.01 0.02 0.02 0.02 0.03 0.04 0.04 0.03 0.01 0.00 0.00 0.00 0.00 0.00 0.00 0.00 0.00 0.00 0.00 0.00 0.00
0.01 0.02 0.03 0.04 0.04 0.02 0.01 0.00 0.00 0.00 0.01 0.00 0.00 0.00 0.00 0.00 0.00 0.00 0.00 0.00 0.00 0.01 0.01 0.01 0.01 0.01 0.01 0.02 0.03 0.04 0.03 0.01 0.00 0.00 0.01 0.01 0.00 0.01 0.00 0.00 0.00 0.01 0.01 0.00
0.02 0.03 0.03 0.04 0.05 0.02 0.00 0.00 0.00 0.01 0.01 0.00 0.00 0.00 0.00 0.00 0.00 0.00 0.00 0.00 0.00 0.00 0.00 0.00 0.00 0.01 0.01 0.01 0.01 0.03 0.03 0.01 0.00 0.01 0.01 0.01 0.01 0.01 0.01 0.00 0.00 0.00 0.01 0.01
0.03 0.03 0.03 0.03 0.04 0.03 0.01 0.00 0.00 0.00 0.00 0.00 0.00 0.00 0.00 0.00 0.00 0.00 0.00 0.00 0.00 0.00 0.00 0.00 0.00 0.00 0.01 0.01 0.01 0.02 0.02 0.01 0.01 0.00 0.01 0.02 0.02 0.02 0.01 0.01 0.01 0.01 0.01 0.01
0.03 0.03 0.03 0.01 0.01 0.01 0.00 0.00 0.00 0.00 0.00 0.00 0.00 0.00 0.00 0.00 0.00 0.00 0.00 0.00 0.00 0.00 0.00 0.00 0.00 0.00 0.00 0.00 0.01 0.01 0.02 0.01 0.01 0.01 0.01 0.02 0.02 0.02 0.02 0.01 0.01 0.01 0.02 0.01
0.02 0.01 0.02 0.01 0.00 0.00 0.00 0.00 0.00 0.00 0.00 0.00 0.00 0.00 0.00 0.00 0.00 0.00 0.00 0.00 0.00 0.00 0.00 0.00 0.00 0.00 0.00 0.01 0.01 0.02 0.02 0.02 0.02 0.02 0.02 0.02 0.02 0.01 0.01 0.01 0.01 0.01 0.01 0.00
0.02 0.02 0.02 0.01 0.01 0.00 0.00 0.00 0.00 0.00 0.00 0.00 0.00 0.00 0.00 0.00 0.00 0.00 0.00 0.00 0.00 0.00 0.00 0.00 0.00 0.00 0.00 0.00 0.01 0.01 0.02 0.02 0.03 0.02 0.02 0.01 0.01 0.01 0.01 0.01 0.01 0.01 0.00 0.00
0.01 0.01 0.01 0.01 0.00 0.00 0.00 0.00 0.00 0.00 0.00 0.00 0.00 0.00 0.00 0.00 0.00 0.00 0.00 0.00 0.00 0.00 0.00 0.01 0.01 0.01 0.01 0.01 0.01 0.01 0.01 0.01 0.03 0.03 0.02 0.01 0.01 0.00 0.00 0.00 0.01 0.01 0.01 0.00
MSLP
1012.30 1012.74 1013.11 1013.38 1013.55 1013.64 1013.65 1013.59 1013.50 1013.39 1013.27 1013.18 1013.12 1013.12 1013.17 1013.29 1013.46 1013.67 1013.87 1014.04 1014.16 1014.20 1014.17 1014.08 1013.96 1013.84 1013.77 1013.77 1013.88 1014.08 1014.38 1014.74 1015.13 1015.51 1015.86 1016.14 1016.35 1016.47 1016.52 1016.50 1016.41 1016.29 1016.14 1015.98
1012.64 1012.99 1013.28 1013.49 1013.64 1013.73 1013.78 1013.78 1013.75 1013.69 1013.61 1013.50 1013.39 1013.29 1013.24 1013.24 1013.31 1013.45 1013.62 1013.82 1014.00 1014.13 1014.19 1014.18 1014.11 1014.02 1013.93 1013.90 1013.95 1014.12 1014.39 1014.75 1015.17 1015.61 1016.02 1016.37 1016.63 1016.80 1016.86 1016.83 1016.73 1016.59 1016.41 1016.24
1012.87 1013.13 1013.34 1013.51 1013.64 1013.76 1013.87 1013.95 1014.00 1014.00 1013.94 1013.81 1013.63 1013.42 1013.24 1013.11 1013.06 1013.12 1013.27 1013.49 1013.74 1013.97 1014.13 1014.21 1014.21 1014.14 1014.05 1013.99 1013.99 1014.11 1014.35 1014.70 1015.14 1015.62 1016.09 1016.50 1016.83 1017.04 1017.13 1017.11 1017.02 1016.88 1016.71 1016.54
1013.00 1013.18 1013.32 1013.46 1013.61 1013.78 1013.97 1014.15 1014.29 1014.34 1014.29 1014.11 1013.84 1013.50 1013.16 1012.87 1012.70 1012.66 1012.78 1013.02 1013.34 1013.67 1013.95 1014.14 1014.22 1014.20 1014.12 1014.03 1014.00 1014.07 1014.27 1014.61 1015.06 1015.57 1016.10 1016.57 1016.96 1017.22 1017.35 1017.37 1017.30 1017.17 1017.02 1016.87
1013.07 1013.17 1013.28 1013.41 1013.60 1013.85 1014.14 1014.42 1014.64 1014.73 1014.67 1014.44 1014.04 1013.54 1013.02 1012.55 1012.23 1012.09 1012.16 1012.41 1012.79 1013.22 1013.62 1013.93 1014.11 1014.16 1014.11 1014.03 1013.98 1014.02 1014.20 1014.53 1014.98 1015.52 1016.09 1016.62 1017.06 1017.37 1017.55 1017.61 1017.57 1017.48 1017.35 1017.23
1013.11 1013.16 1013.25 1013.41 1013.67 1014.01 1014.40 1014.78 1015.07 1015.19 1015.11 1014.78 1014.25 1013.58 1012.85 1012.20 1011.71 1011.45 1011.46 1011.71 1012.14 1012.67 1013.19 1013.62 1013.91 1014.05 1014.06 1014.00 1013.96 1013.99 1014.15 1014.47 1014.93 1015.49 1016.09 1016.66 1017.15 1017.51 1017.74 1017.83 1017.83 1017.77 1017.68 1017.59
1013.16 1013.19 1013.28 1013.49 1013.82 1014.26 1014.75 1015.22 1015.57 1015.71 1015.58 1015.16 1014.48 1013.63 1012.71 1011.87 1011.21 1010.83 1010.77 1011.01 1011.47 1012.08 1012.70 1013.25 1013.65 1013.88 1013.97 1013.96 1013.94 1013.98 1014.15 1014.47 1014.93 1015.50 1016.12 1016.72 1017.24 1017.63 1017.89 1018.01 1018.04 1018.01 1017.95 1017.89
1013.22 1013.25 1013.38 1013.64 1014.05 1014.58 1015.16 1015.70 1016.09 1016.22 1016.05 1015.54 1014.73 1013.72 1012.63 1011.62 1010.82 1010.33 1010.19 1010.40 1010.88 1011.53 1012.24 1012.88 1013.38 1013.71 1013.87 1013.93 1013.95 1014.01 1014.19 1014.52 1014.98 1015.56 1016.18 1016.78 1017.31 1017.72 1017.99 1018.13 1018.18 1018.16 1018.13 1018.11
1013.30 1013.35 1013.52 1013.84 1014.33 1014.93 1015.57 1016.16 1016.56 1016.68 1016.46 1015.87 1014.97 1013.84 1012.63 1011.49 1010.58 1010.00 1009.79 1009.96 1010.44 1011.11 1011.86 1012.57 1013.14 1013.54 1013.78 1013.90 1013.97 1014.07 1014.27 1014.60 1015.07 1015.63 1016.25 1016.84 1017.35 1017.75 1018.02 1018.16 1018.21 1018.21 1018.20 1018.21
1013.36 1013.44 1013.66 1014.04 1014.58 1015.23 1015.91 1016.51 1016.91 1017.01 1016.75 1016.11 1015.15 1013.96 1012.68 1011.48 1010.51 1009.87 1009.62 1009.75 1010.19 1010.86 1011.61 1012.34 1012.95 1013.41 1013.70 1013.88 1014.00 1014.14 1014.37 1014.71 1015.17 1015.72 1016.30 1016.87 1017.36 1017.73 1017.97 1018.11 1018.16 1018.17 1018.17 1018.20
1013.37 1013.50 1013.77 1014.20 1014.77 1015.43 1016.11 1016.68 1017.05 1017.12 1016.83 1016.17 1015.20 1014.01 1012.73 1011.54 1010.56 1009.91 1009.63 1009.72 1010.13 1010.75 1011.48 1012.19 1012.81 1013.28 1013.61 1013.84 1014.01 1014.19 1014.45 1014.80 1015.26 1015.78 1016.34 1016.86 1017.31 1017.65 1017.87 1017.99 1018.04 1018.05 1018.08 1018.14
1013.31 1013.50 1013.83 1014.28 1014.86 1015.50 1016.12 1016.64 1016.95 1016.97 1016.66 1016.00 1015.06 1013.92 1012.71 1011.58 1010.66 1010.03 1009.75 1009.82 1010.18 1010.74 1011.40 1012.07 1012.66 1013.14 1013.49 1013.75 1013.97 1014.20 1014.49 1014.86 1015.32 1015.82 1016.35 1016.83 1017.24 1017.55 1017.75 1017.86 1017.91 1017.94 1018.00 1018.10
1013.18 1013.44 1013.81 1014.28 1014.83 1015.41 1015.96 1016.38 1016.60 1016.56 1016.21 1015.57 1014.68 1013.64 1012.54 1011.52 1010.69 1010.13 1009.87 1009.92 1010.23 1010.72 1011.32 1011.92 1012.47 1012.93 1013.30 1013.59 1013.86 1014.14 1014.47 1014.87 1015.34 1015.83 1016.33 1016.79 1017.17 1017.45 1017.64 1017.75 1017.83 1017.89 1017.98 1018.12
1013.02 1013.34 1013.73 1014.20 1014.70 1015.19 1015.62 1015.92 1016.02 1015.89 1015.51 1014.88 1014.06 1013.12 1012.16 1011.28 1010.57 1010.09 1009.88 1009.93 1010.20 1010.62 1011.14 1011.67 1012.18 1012.62 1013.00 1013.34 1013.66 1014.00 1014.39 1014.83 1015.31 1015.81 1016.30 1016.74 1017.10 1017.38 1017.58 1017.71 1017.82 1017.92 1018.06 1018.25
1012.83 1013.21 1013.62 1014.06 1014.49 1014.87 1015.16 1015.30 1015.27 1015.03 1014.59 1013.97 1013.21 1012.38 1011.56 1010.82 1010.25 1009.87 1009.71 1009.77 1010.01 1010.37 1010.82 1011.30 1011.76 1012.19 1012.59 1012.97 1013.36 1013.77 1014.22 1014.71 1015.23 1015.74 1016.24 1016.67 1017.04 1017.33 1017.56 1017.73 1017.88 1018.04 1018.23 1018.46
1012.67 1013.08 1013.49 1013.89 1014.23 1014.48 1014.61 1014.60 1014.41 1014.06 1013.55 1012.92 1012.21 1011.48 1010.78 1010.19 1009.73 1009.45 1009.36 1009.43 1009.65 1009.97 1010.36 1010.79 1011.22 1011.64 1012.07 1012.51 1012.96 1013.45 1013.97 1014.51 1015.07 1015.62 1016.13 1016.58 1016.97 1017.28 1017.54 1017.77 1017.98 1018.19 1018.44 1018.71
1012.53 1012.95 1013.35 1013.69 1013.93 1014.05 1014.03 1013.85 1013.51 1013.04 1012.46 1011.82 1011.14 1010.49 1009.91 1009.44 1009.10 1008.91 1008.87 1008.96 1009.17 1009.45 1009.80 1010.19 1010.60 1011.03 1011.48 1011.97 1012.49 1013.04 1013.63 1014.23 1014.83 1015.41 1015.94 1016.42 1016.83 1017.18 1017.49 1017.76 1018.03 1018.31 1018.60 1018.91
1012.44 1012.83 1013.19 1013.46 1013.60 1013.59 1013.42 1013.09 1012.63 1012.06 1011.43 1010.77 1010.13 1009.56 1009.07 1008.71 1008.47 1008.35 1008.36 1008.47 1008.66 1008.92 1009.23 1009.58 1009.97 1010.40 1010.87 1011.39 1011.96 1012.57 1013.21 1013.86 1014.49 1015.09 1015.65 1016.15 1016.59 1016.97 1017.32 1017.65 1017.97 1018.30 1018.63 1018.97
1012.35 1012.70 1012.99 1013.17 1013.21 1013.08 1012.80 1012.36 1011.80 1011.17 1010.51 1009.86 1009.27 1008.77 1008.38 1008.10 1007.95 1007.90 1007.95 1008.07 1008.24 1008.47 1008.74 1009.05 1009.42 1009.83 1010.31 1010.84 1011.43 1012.07 1012.73 1013.40 1014.05 1014.67 1015.23 1015.75 1016.21 1016.63 1017.01 1017.38 1017.75 1018.12 1018.48 1018.84
1012.28 1012.53 1012.73 1012.81 1012.74 1012.52 1012.15 1011.65 1011.05 1010.40 1009.75 1009.15 1008.63 1008.21 1007.91 1007.73 1007.65 1007.66 1007.74 1007.86 1008.02 1008.21 1008.43 1008.70 1009.02 1009.40 1009.85 1010.37 1010.95 1011.58 1012.24 1012.90 1013.54 1014.15 1014.72 1015.23 1015.70 1016.14 1016.55 1016.96 1017.36 1017.75 1018.14 1018.51
1012.19 1012.32 1012.39 1012.36 1012.21 1011.91 1011.49 1010.96 1010.37 1009.75 1009.17 1008.65 1008.22 1007.91 1007.71 1007.63 1007.62 1007.68 1007.78 1007.90 1008.04 1008.19 1008.36 1008.57 1008.83 1009.16 1009.56 1010.03 1010.57 1011.16 1011.78 1012.40 1013.01 1013.60 1014.14 1014.65 1015.12 1015.56 1015.99 1016.41 1016.83 1017.25 1017.65 1018.03
1012.09 1012.08 1012.01 1011.86 1011.62 1011.27 1010.82 1010.31 1009.77 1009.23 1008.75 1008.34 1008.04 1007.85 1007.76 1007.77 1007.84 1007.94 1008.07 1008.19 1008.30 1008.41 1008.53 1008.68 1008.87 1009.12 1009.45 1009.85 1010.32 1010.84 1011.40 1011.96 1012.52 1013.06 1013.57 1014.06 1014.51 1014.96 1015.39 1015.82 1016.25 1016.67 1017.09 1017.48
1011.99 1011.82 1011.60 1011.34 1011.01 1010.62 1010.18 1009.72 1009.25 1008.82 1008.46 1008.19 1008.03 1007.96 1007.99 1008.09 1008.22 1008.38 1008.52 1008.65 1008.74 1008.82 1008.89 1008.98 1009.10 1009.28 1009.53 1009.85 1010.23 1010.67 1011.15 1011.64 1012.14 1012.63 1013.09 1013.54 1013.98 1014.40 1014.83 1015.26 1015.69 1016.11 1016.53 1016.93
1011.91 1011.57 1011.22 1010.84 1010.45 1010.03 1009.61 1009.20 1008.83 1008.51 1008.28 1008.15 1008.11 1008.16 1008.29 1008.47 1008.68 1008.87 1009.05 1009.18 1009.27 1009.33 1009.37 1009.41 1009.48 1009.60 1009.77 1010.01 1010.31 1010.67 1011.06 1011.48 1011.91 1012.34 1012.76 1013.17 1013.57 1013.98 1014.38 1014.80 1015.22 1015.63 1016.05 1016.44
1011.84 1011.36 1010.89 1010.42 1009.97 1009.54 1009.14 1008.79 1008.50 1008.29 1008.17 1008.14 1008.21 1008.36 1008.57 1008.82 1009.07 1009.32 1009.52 1009.68 1009.78 1009.84 1009.87 1009.90 1009.94 1010.01 1010.13 1010.30 1010.53 1010.81 1011.13 1011.48 1011.85 1012.21 1012.58 1012.95 1013.32 1013.70 1014.08 1014.47 1014.86 1015.26 1015.66 1016.05
1011.77 1011.19 1010.63 1010.10 1009.62 1009.18 1008.81 1008.50 1008.28 1008.14 1008.09 1008.14 1008.27 1008.48 1008.74 1009.03 1009.33 1009.61 1009.85 1010.04 1010.18 1010.27 1010.32 1010.36 1010.40 1010.45 1010.54 1010.68 1010.86 1011.08 1011.34 1011.62 1011.93 1012.24 1012.56 1012.89 1013.22 1013.55 1013.90 1014.25 1014.61 1014.98 1015.36 1015.73
Thickness
5743 5732 5724 5731 5736 5734 5731 5727 5723 5729 5741 5733 5726 5725 5731 5737 5736 5733 5733 5733 5733 5736 5741 5746 5746 5746 5745 5745 5745 5743 5742 5741 5740 5739 5737 5734 5732 5733 5731 5731 5731 5730 5730 5729
5730 5723 5735 5742 5740 5733 5727 5721 5719 5727 5736 5730 5722 5723 5731 5735 5734 5734 5733 5733 5733 5734 5737 5739 5741 5742 5741 5741 5741 5742 5741 5740 5739 5738 5738 5736 5733 5732 5730 5730 5729 5729 5728 5727
5721 5731 5740 5734 5729 5723 5721 5718 5719 5719 5726 5728 5719 5713 5723 5733 5737 5737 5737 5736 5735 5734 5734 5735 5737 5738 5738 5738 5740 5741 5739 5739 5738 5738 5737 5735 5732 5730 5728 5727 5727 5727 5726 5725
5726 5736 5733 5726 5722 5720 5711 5726 5725 5719 5710 5706 5713 5696 5716 5727 5727 5731 5732 5733 5735 5736 5736 5735 5736 5735 5736 5737 5740 5740 5739 5738 5737 5736 5734 5730 5726 5724 5725 5726 5726 5726 5725 5724
5722 5731 5725 5719 5721 5722 5716 5726 5721 5716 5709 5703 5711 5702 5712 5726 5718 5725 5731 5733 5735 5736 5737 5735 5736 5735 5737 5738 5738 5739 5737 5736 5736 5734 5732 5730 5728 5727 5727 5727 5726 5725 5724 5723
5727 5736 5732 5727 5730 5728 5723 5718 5715 5713 5704 5689 5706 5702 5705 5723 5725 5727 5731 5734 5736 5736 5737 5736 5737 5735 5735 5736 5736 5735 5734 5733 5733 5732 5731 5730 5728 5727 5725 5725 5724 5723 5722 5722
5714 5723 5731 5731 5718 5719 5715 5699 5685 5682 5679 5689 5717 5710 5712 5736 5742 5738 5735 5736 5737 5737 5736 5734 5733 5732 5732 5732 5732 5732 5731 5729 5730 5731 5731 5730 5730 5729 5726 5725 5724 5722 5721 5720
5702 5701 5721 5725 5719 5711 5710 5703 5683 5673 5679 5694 5712 5707 5723 5745 5748 5747 5743 5742 5740 5736 5735 5733 5732 5732 5731 5731 5731 5730 5729 5728 5729 5729 5731 5732 5731 5729 5728 5727 5726 5724 5722 5722
5706 5704 5725 5728 5728 5720 5707 5705 5710 5694 5693 5690 5702 5716 5729 5742 5741 5743 5742 5740 5737 5735 5735 5734 5733 5732 5732 5731 5730 5730 5729 5728 5728 5729 5730 5730 5730 5729 5728 5728 5727 5726 5725 5724
5720 5704 5716 5723 5723 5721 5718 5712 5703 5689 5678 5676 5694 5705 5710 5723 5728 5734 5736 5736 5738 5738 5737 5736 5734 5731 5732 5731 5731 5731 5730 5729 5729 5729 5729 5729 5729 5728 5728 5727 5726 5726 5725 5724
5723 5706 5706 5712 5707 5705 5708 5706 5704 5698 5692 5676 5675 5691 5726 5728 5733 5734 5737 5738 5738 5738 5737 5735 5734 5733 5732 5731 5730 5729 5729 5729 5729 5729 5728 5728 5727 5727 5726 5725 5725 5725 5724 5724
5720 5709 5698 5706 5719 5723 5715 5710 5703 5685 5685 5689 5679 5691 5736 5738 5740 5738 5737 5738 5739 5738 5738 5736 5734 5732 5730 5729 5729 5729 5729 5728 5728 5728 5727 5726 5726 5725 5724 5723 5723 5724 5724 5723
5712 5701 5686 5687 5698 5708 5708 5711 5709 5703 5692 5686 5680 5692 5733 5737 5737 5738 5737 5737 5737 5736 5736 5735 5733 5731 5730 5729 5728 5728 5729 5728 5727 5727 5725 5724 5723 5723 5722 5722 5723 5723 5723 5722
5713 5700 5691 5681 5690 5700 5701 5707 5710 5702 5687 5687 5694 5700 5718 5726 5728 5732 5735 5736 5737 5736 5735 5733 5731 5731 5731 5730 5729 5728 5728 5727 5726 5725 5723 5722 5721 5722 5722 5722 5721 5721 5721 5720
5708 5696 5701 5706 5711 5710 5708 5707 5708 5704 5703 5696 5702 5708 5718 5726 5729 5732 5735 5736 5735 5734 5734 5734 5732 5732 5731 5729 5729 5729 5727 5726 5725 5722 5721 5721 5721 5721 5721 5719 5719 5719 5719 5719
5705 5697 5700 5699 5709 5709 5707 5711 5711 5710 5711 5709 5710 5712 5730 5735 5736 5733 5734 5734 5732 5733 5734 5735 5734 5733 5731 5730 5729 5729 5727 5725 5724 5721 5720 5720 5720 5719 5718 5717 5716 5716 5715 5715
5699 5695 5689 5687 5701 5702 5695 5712 5714 5715 5719 5715 5707 5717 5730 5730 5730 5730 5732 5732 5732 5733 5735 5735 5735 5734 5733 5732 5731 5730 5728 5725 5722 5720 5719 5718 5717 5716 5715 5715 5713 5712 5711 5711
5698 5692 5688 5685 5687 5675 5707 5732 5728 5721 5721 5725 5724 5727 5730 5730 5732 5734 5735 5733 5733 5735 5735 5736 5736 5736 5735 5734 5732 5731 5728 5724 5721 5719 5717 5717 5715 5713 5712 5711 5710 5709 5708 5706
5705 5693 5683 5680 5675 5686 5709 5725 5726 5718 5715 5729 5728 5729 5732 5733 5730 5728 5735 5736 5734 5736 5737 5737 5738 5737 5736 5735 5733 5730 5726 5723 5720 5718 5717 5716 5714 5711 5710 5708 5707 5707 5705 5704
5699 5696 5683 5677 5671 5674 5703 5727 5736 5723 5707 5731 5734 5731 5731 5729 5713 5717 5733 5735 5734 5735 5736 5736 5736 5736 5734 5734 5733 5728 5724 5721 5719 5718 5717 5716 5714 5711 5708 5707 5706 5705 5703 5702
5679 5680 5676 5674 5673 5688 5715 5727 5726 5698 5704 5732 5737 5735 5733 5727 5725 5730 5735 5733 5732 5733 5733 5733 5732 5731 5731 5732 5731 5726 5723 5720 5720 5719 5716 5714 5712 5710 5708 5706 5704 5703 5701 5699
5678 5673 5675 5678 5671 5681 5716 5718 5712 5714 5730 5735 5736 5736 5734 5731 5731 5731 5730 5728 5728 5728 5729 5729 5727 5726 5728 5729 5726 5723 5720 5721 5720 5717 5713 5711 5709 5708 5706 5703 5701 5699 5697 5694
5684 5687 5687 5688 5690 5709 5719 5720 5726 5729 5728 5731 5732 5733 5732 5728 5726 5725 5724 5724 5724 5724 5724 5725 5723 5722 5722 5724 5723 5719 5718 5718 5715 5712 5709 5707 5706 5705 5703 5699 5696 5694 5692 5690
5687 5696 5691 5690 5699 5709 5715 5720 5723 5726 5726 5729 5730 5730 5728 5724 5722 5721 5720 5719 5719 5720 5720 5720 5719 5717 5716 5718 5717 5716 5716 5715 5711 5707 5704 5703 5701 5699 5697 5695 5693 5690 5688 5686
5679 5684 5684 5684 5695 5703 5707 5713 5717 5720 5723 5724 5726 5725 5723 5721 5719 5718 5716 5715 5715 5715 5716 5716 5714 5712 5711 5713 5712 5712 5712 5710 5705 5702 5700 5698 5696 5694 5691 5689 5688 5687 5686 5685
5679 5679 5676 5679 5694 5695 5699 5709 5714 5714 5715 5717 5717 5717 5718 5717 5715 5714 5712 5712 5712 5711 5711 5710 5709 5707 5707 5707 5706 5707 5707 5706 5701 5696 5694 5693 5691 5689 5687 5684 5680 5680 5680 5680